EHI
0 0 0 0 0 0 0 0 0 0 0 0 0 0 0 0 0 0 0 0 0 0 0 0 0 0 0 0 0 0 0 0 0 0 0 0 0 0
0 0 0 0 0 0 0 0 0 0 0 0 0 0 0 0 0 0 0 0 0 0 0 0 0 0 0 0 0 0 0 0 0 0 0 0 0 0
0 0 0 0 0 0 0 0 0 0 0 0 0 0 0 0 0 0 0 0 0 0 0 0 0 0 0 0 0 0 0 0 0 0 0 0 0 0
0 0 0 0 0 0 0 0 0 0 0 0 0 0 0 0 0 0 0 0 0 0 0 0 0 0 0 0 0 0 0 0 0 0 0 0 0 0
0 0 0 0 0 0 0 0 0 0 0 0 0 0 0 0 0 0 0 0 0 0 0 0 0 0 0 0 0 0 0 0 0 0 0 0 0 0
0 0 0 0 0 0 0 0 0 0 0 0 0 0 0 0 0 0 0 0 0 0 0 0 0 0 0 0 0 0 0 0 0 0 0 0 0 0
0 0 0 0 0 0 0 0 0 0 0 0 0 0 0 0 0 0 0 0 0 0 0 0 0 0 0 0 0 0 0 0 0 0 0 0 0 0
0 0 0 0 0 0 0 0 0 0 0 0 0 0 0 0 0 0 0 0 0 0 0 0 0 0 0 0 0 0 0 0 0 0 0 0 0 0
0 0 0 0 0 0 0 0 0 0 0 0 0 0 0 0 0 0 0 0 0 0 0 0 0 0 0 0 0 0 0 0 0 0 0 0 0 0
0 0 0 0 0 0 0 0 0 0 0 0 0 0 0 0 0 0 0 0 0 0 0 0 0 0 0 0 0 0 0 0 0 0 0 0 0 0
0 0 0 0 0 0 0 0 0 0 0 0 0 0 0 0 0 0 0 0 0 0 0 0 0 0 0 0 0 0 0 0 0 0 0 0 0 0
0 0 0 0 0 0 0 0 0 0 0 0 0 0 0 0 0 0 0 0 0 0 0 0 0 0 0 0 0 0 0 0 0 0 0 0 0 0
0 0 0 0 0 0 0 0 0 0 0 0 0 0 0 0 0 0 0 0 0 0 0 0 0 0 0 0 0 0 0 0 0 0 0 0 0 0
0 0 0 0 0 0 0 0 0 0 0 0 0 0 0 0 0 0 0 0 0 0 0 0 0 0 0 0 0 0 0 0 0 0 0 0 0 0
0 0 0 0 0 0 0 0 0 0 0 0 0 0 0 0 0 0 0 0 0 0 0 0 0 0 0 0 0 0 0 0 0 0 0 0 0 0
0 0 0 0 0 0 0 0 0 0 0 0 0 0 0 0 0 0 0 0 0 0 0 0 0 0 0 0 0 0 0 0 0 0 0 0 0 0
0 0 0 0 0 0 0 0 0 0 0 0 0 0 0 0 0 0 0 0 0 0 0 0 0 0 0 0 0 0 0 0 0 0 0 0 0 0
0 0 0 0 0 0 0 0 0 0 0 0 0 0 0 0 0 0 0 0 0 0 0 0 0 0 0 0 0 0 0 0 0 0 0 0 0 0
0 0 0 0 0 0 0 0 0 0 0 0 0 0 0 0 0 0 0 0 0 0 0 0 0 0 0 0 0 0 0 0 0 0 0 0 0 0
0 0 0 0 0 0 0 0 0 0 0 0 0 0 0 0 0 0 0 0 0 0 0 0 0 0 0 0 0 0 0 0 0 0 0 0 0 0
0 0 0 0 0 0 0 0 0 0 0 0 0 0 0 0 0 0 0 0 0 0 0 0 0 0 0 0 0 0 0 0 0 0 0 0 0 0
0 0 0 0 0 0 0 0 0 0 0 0 0 0 0 0 0 0 0 0 0 0 0 0 0 0 0 0 0 0 0 0 0 0 0 0 0 0
0 0 0 0 0 0 0 0 0 0 0 0 0 0 0 0 0 0 0 0 0 0 0 0 0 0 0 0 0 0 0 0 0 0 0 0 0 0
Wind_Speed
6 6 4 4 4 4 4 4 5 4 3 4 4 6 6 5 6 6 5 6 4 4 3 3 3 3 3 3 3 4 4 5 5 6 8 10 11 11
4 5 5 4 4 3 4 4 4 4 4 4 4 5 6 6 6 7 6 4 3 3 4 4 4 4 4 4 4 4 5 5 6 7 8 8 9 10
5 6 6 6 4 4 4 3 3 4 4 4 4 5 7 7 6 6 6 5 3 2 4 5 5 5 5 5 5 5 5 5 6 6 8 9 9 10
6 6 6 4 5 5 4 4 4 4 5 6 5 5 7 7 7 7 6 5 5 3 3 5 6 6 6 7 7 7 7 7 7 7 8 9 10 10
5 5 6 6 5 5 5 5 4 4 4 5 5 5 5 6 7 6 6 5 6 4 4 5 6 7 8 8 8 8 8 8 8 8 8 9 9 10
4 5 5 6 6 6 5 5 5 5 5 5 5 5 5 6 6 6 6 6 6 7 5 5 5 7 8 9 9 9 9 9 9 9 9 9 9 10
4 4 5 5 7 7 6 6 6 5 5 5 5 6 5 6 6 6 7 7 7 5 6 6 6 6 5 7 10 10 9 9 9 10 10 10 10 10
4 4 3 3 4 3 4 6 7 7 7 6 6 7 8 8 7 7 8 8 7 5 7 7 6 7 6 6 5 6 9 10 10 10 10 10 11 11
4 4 4 4 5 6 4 5 5 5 7 8 9 9 9 9 9 10 9 9 9 8 8 9 8 8 7 6 6 8 10 11 11 11 12 12 12 12
4 5 5 5 6 8 8 8 7 6 6 7 8 9 10 10 10 10 11 11 11 8 8 9 9 8 7 7 7 9 10 11 12 12 12 12 12 12
3 4 5 6 7 9 9 8 8 7 5 7 10 11 12 12 10 8 9 9 9 8 7 8 9 9 9 8 7 9 10 12 12 13 13 12 12 12
3 3 2 5 8 9 9 9 9 9 10 9 9 9 10 8 8 9 8 9 10 9 7 7 9 9 9 7 6 6 7 9 12 13 13 13 12 10
4 4 3 4 8 10 10 9 9 11 11 10 9 8 8 7 7 7 8 8 10 10 9 9 9 10 10 9 8 8 8 8 8 9 11 13 13 12
5 5 4 6 9 11 9 9 11 12 8 8 8 8 8 8 8 9 10 10 10 13 13 12 10 10 11 12 10 9 8 8 8 8 8 9 12 14
5 6 8 10 11 9 7 9 10 8 7 8 8 8 8 9 9 9 10 10 12 12 12 13 11 10 10 12 11 10 10 9 9 8 8 8 8 8
6 6 8 10 9 9 9 7 6 6 7 8 8 8 8 8 9 8 9 9 9 10 11 12 12 12 11 12 11 11 10 9 8 8 8 8 8 8
7 7 7 7 7 6 6 7 7 7 7 7 8 9 9 9 9 9 8 9 10 11 11 9 10 10 12 12 11 11 11 10 9 9 8 9 9 9
8 7 7 7 8 8 8 8 7 7 8 9 9 9 9 10 10 9 9 10 10 10 11 10 9 10 10 10 10 12 10 10 9 9 9 9 9 9
8 7 7 7 8 8 8 8 9 8 8 9 9 10 10 10 10 10 10 10 10 11 11 10 9 10 11 12 11 9 10 9 9 9 9 9 9 9
7 8 8 8 8 8 8 9 9 9 9 9 10 10 10 10 11 11 10 11 11 11 12 11 10 10 11 12 12 11 12 11 9 9 8 7 7 6
8 8 8 8 8 9 9 9 10 10 10 10 10 11 10 11 11 11 11 13 12 12 12 12 11 12 12 11 11 11 10 10 10 9 8 7 7 7
8 9 9 9 9 9 9 9 10 10 11 10 11 10 10 10 12 13 12 12 11 12 13 12 12 12 11 12 13 13 12 9 7 9 10 10 8 8
9 9 9 9 9 9 9 11 12 11 11 11 11 11 11 11 11 11 12 12 12 13 13 12 12 11 11 11 11 11 12 10 7 6 6 7 9 9
Wind_Direction
32 33 25 26 14 11 5 357 346 345 8 21 7 11 359 3 356 342 349 25 348 327 316 304 286 276 268 262 263 264 259 250 235 220 214 217 217 214
32 30 22 19 17 14 3 1 355 342 343 358 354 354 355 345 1 344 345 330 293 306 307 296 277 269 261 253 248 247 247 244 237 228 221 220 220 218
38 37 31 17 13 14 7 2 359 345 331 338 347 349 348 345 347 341 334 323 331 336 304 292 278 269 261 255 247 243 243 242 236 231 227 223 221 219
32 29 27 27 19 11 1 1 1 347 333 332 334 347 345 344 342 334 332 332 324 340 302 285 275 266 260 254 247 242 240 238 234 232 233 230 225 221
26 19 16 17 12 14 2 359 352 347 335 322 333 340 330 340 334 330 330 329 319 316 287 265 264 264 261 254 245 239 237 236 233 231 232 234 231 226
23 17 11 9 4 359 355 353 346 339 335 326 326 330 328 336 327 329 326 327 319 316 313 303 281 260 253 249 245 242 237 236 234 232 231 230 230 231
16 16 24 19 11 358 349 344 340 331 328 325 323 323 326 328 330 326 318 315 311 308 313 306 301 290 270 245 237 237 236 235 234 233 230 227 225 228
360 357 7 4 359 326 328 325 323 323 326 319 315 316 321 325 325 313 312 310 307 310 304 299 294 288 283 275 264 240 237 234 234 234 232 229 226 225
345 347 347 355 334 335 320 284 282 277 290 303 306 312 316 321 317 310 306 302 298 302 300 291 287 281 280 276 257 249 243 238 236 234 233 231 228 225
335 334 330 337 357 340 325 319 317 316 307 296 304 308 311 314 309 302 299 294 289 284 279 284 288 286 286 283 264 249 247 241 238 237 234 230 227 225
327 334 331 330 3 334 314 314 313 313 295 278 286 288 293 290 290 292 292 292 292 293 287 282 288 291 287 281 269 243 241 243 239 236 234 229 224 223
319 318 0 336 339 326 313 314 312 317 316 307 293 286 286 287 273 280 290 291 294 293 292 291 291 294 289 279 279 276 261 247 238 234 230 227 220 225
310 311 338 350 321 314 306 305 315 313 305 302 300 301 301 301 298 293 290 288 289 287 293 294 290 288 282 284 283 277 271 266 254 244 230 225 219 220
301 307 327 329 311 304 299 305 303 297 293 296 298 300 303 304 304 303 297 291 285 285 287 285 281 280 282 282 281 279 276 271 264 258 251 231 220 221
293 309 303 298 294 287 281 288 289 288 295 296 298 301 304 304 304 301 297 293 291 289 286 283 279 277 274 274 277 276 276 272 264 256 253 245 238 229
275 279 263 263 263 273 282 280 283 293 298 296 297 298 299 299 296 298 297 297 294 293 289 285 279 275 275 273 271 272 270 267 263 259 255 253 247 239
306 292 291 293 294 295 296 298 296 293 291 292 295 297 297 297 297 298 294 294 292 294 297 294 287 281 275 272 269 265 266 266 263 260 257 253 250 241
287 282 286 289 293 297 299 298 296 296 298 297 295 294 294 296 297 295 292 290 290 292 294 296 295 291 282 273 258 264 265 266 266 261 256 254 253 249
270 276 282 285 289 291 293 294 295 296 296 293 291 291 291 291 292 292 291 290 289 291 292 292 288 286 282 281 276 256 265 269 268 262 255 251 252 249
266 274 280 283 285 288 289 290 292 293 291 289 289 289 288 288 289 290 290 291 292 292 292 289 282 280 280 282 284 280 259 259 262 263 261 257 263 262
272 273 276 279 281 283 286 287 288 288 288 287 286 285 285 287 288 288 289 290 288 287 287 287 287 285 283 279 273 272 268 253 253 256 259 256 255 249
272 274 275 277 279 281 283 284 285 285 286 284 285 284 284 286 286 287 288 287 287 285 287 288 287 283 277 272 271 274 277 271 266 253 245 249 246 238
272 274 276 277 277 279 280 282 283 284 285 285 286 286 285 283 283 283 284 285 286 287 288 289 288 283 278 273 271 270 270 271 267 262 264 261 244 243